METEOSAT-10 (MSG-3)

Last updated on Jan. 20, 2021, 6:21 a.m. UTC

1 38552U 12035B   21019.83589654  .00000066  00000-0  00000-0 0  9997
2 38552   1.2361 356.5945 0000530  18.2320  54.8354  1.00267482 31068
UTC
Height (km)
Latitude
Longitude
Inclination
Orbital Period
UTC large
Height (km)
Speed (km/s)
/
Latitude / Longitude
Inclination (degrees)
Orbital Period (minutes)
Azimuth
Elevation
Range (km)
Doppler Factor
iOS Compass Heading
iOS Angle

Next 30 passes for location: Hong Kong

Rise time Rise Azimuth (degrees) Set time Set Azimuth (degrees) Duration Max altitude (degrees)

No matching passes for this satellites